Home > Weather > Ingolstadt > Past weeks

Flag for Germany Weather for the Past 2 Weeks in Ingolstadt, Bavaria, Germany

Now
57 °F

Broken clouds.


Feels Like: 53 °F
Forecast: 41 / 49 °F
Wind: 17 mph from West

Location: Ingolstadt Airport

Current Time: Feb 8, 2016 at 3:28:55 PM

Latest Report: Feb 8, 2016 at 2:20 PM


Visibility: N/A

Pressure: 29.59 "Hg

Humidity: 44%

Dew point: 36 °F

Location of IngolstadtLocation

Historic Weather in Ingolstadt — Graph

°F

Ingolstadt Temperature Yesterday

Maximum temperature yesterday: 50 °F (at 2:20 PM)
Minimum temperature yesterday: 28 °F (at 5:20 AM)
Average temperature yesterday: 39 °F

High & Low Weather Summary for the Past Weeks

 TemperatureHumidityPressure
High55 °F (Jan 27, 2:20 PM)100% (Jan 25, 12:20 AM)30.51 "Hg (Jan 25, 12:20 AM)
Low28 °F (Jan 26, 4:20 AM)47% (Feb 8, 1:20 PM)29.62 "Hg (Feb 7, 12:20 PM)
Average41 °F85%30.16 "Hg
* Reported Jan 24 1:20 PM — Feb 8 1:20 PM, Ingolstadt, Weather by CustomWeather, © 2016

Note: Actual official high and low records may vary slightly from our data, if they occured in-between our weather recording intervals... More about our weather records

Advertising

Ingolstadt Weather History for the Previous 24 Hours

 ConditionsComfort  
Time TempWeatherWind HumidityBarometerVisibility
1:20 PM
Mon, Feb 8
54 °FPartly sunny.13 mph47%29.65 "HgN/A
12:20 PM50 °FPartly sunny.10 mph54%29.65 "HgN/A
11:20 AM48 °FPartly sunny.8 mph54%29.68 "HgN/A
10:20 AM45 °FBroken clouds.6 mph61%29.74 "HgN/A
9:20 AM45 °FPartly sunny.9 mph57%29.77 "HgN/A
8:20 AM43 °FScattered clouds.12 mph61%29.77 "HgN/A
7:20 AM37 °FPassing clouds.7 mph75%29.80 "HgN/A
6:20 AM37 °FChilly.5 mph75%29.80 "Hg0 mi
5:20 AM37 °FChilly.6 mph81%29.83 "Hg0 mi
4:20 AM41 °FQuite cool.7 mph76%29.83 "Hg0 mi
3:20 AM41 °FQuite cool.5 mph76%29.86 "Hg0 mi
2:20 AM41 °FQuite cool.8 mph81%29.86 "Hg0 mi
1:20 AM41 °FQuite cool.7 mph81%29.89 "Hg0 mi
12:20 AM41 °FQuite cool.9 mph81%29.89 "Hg0 mi
11:20 PM
Sun, Feb 7
43 °FQuite cool.10 mph76%29.89 "Hg0 mi
10:20 PM43 °FQuite cool.8 mph81%29.89 "Hg0 mi
9:20 PM43 °FQuite cool.10 mph81%29.86 "Hg0 mi
8:20 PM43 °FQuite cool.5 mph81%29.83 "Hg0 mi
7:20 PM45 °FQuite cool.15 mph76%29.80 "Hg0 mi
6:20 PM45 °FQuite cool.3 mph81%29.77 "Hg0 mi
5:20 PM45 °FQuite cool.12 mph81%29.74 "Hg0 mi
4:20 PM46 °FCool.10 mph76%29.71 "Hg0 mi
3:20 PM48 °FCool.5 mph71%29.65 "Hg0 mi
Weather by CustomWeather, © 2016

See weather overviewHow to use our weather pages